[[{"header":{"parameterUnit":"m.s-1","parameterCategory":1,"la1":30.2992,"la2":30.254,"lo1":-89.0895,"lo2":-89.0443,"dy":0.0025,"dx":0.0025,"nx":19,"ny":19,"refTime":"2026-03-22T09:00:00:Z","depth":0,"parameterNumber":2,"parameterNumberName":"U-component_of_WINDS"},"data":[0,0,0,2.6096,2.6098,2.6171,2.6171,2.6293,2.6295,0,0,0,0,0,0,0,0,0,0,0,2.6092,2.6094,2.6096,2.6098,2.6171,2.6171,2.6293,2.6295,0,0,0,0,0,0,0,0,0,0,0,2.6092,2.6093,2.6095,2.6099,2.6171,2.6171,2.6293,2.6227,0,0,0,0,0,0,0,0,0,0,2.6152,2.6165,2.6093,2.6095,2.6099,2.6171,2.6171,2.6224,2.6232,2.6273,0,2.6314,0,2.6306,2.6305,2.6305,0,0,0,2.6085,2.6159,2.6163,2.6095,2.61,2.6171,2.6135,2.6228,2.6237,2.6283,2.6315,2.6319,2.6308,2.6306,2.6306,2.6587,2.6589,0,0,2.6081,2.6115,2.6157,2.6169,2.616,2.6132,2.6137,2.6233,2.627,2.6316,2.6321,2.631,2.6307,2.6308,2.6585,2.6587,0,0,0,2.6079,2.6113,2.6113,2.6165,2.6176,2.6135,2.614,2.6266,2.6263,2.6323,2.6312,2.6307,2.6309,2.6583,2.6586,2.6714,0,0,0,2.6075,2.6111,2.6112,2.6134,2.6175,2.6222,2.6172,2.6257,2.6266,2.6311,2.6307,2.6311,2.6581,2.6584,2.6706,2.6769,0,0,0,2.6082,2.6111,2.6128,2.6135,2.6168,2.622,2.6222,2.6258,2.6261,2.6305,2.6311,2.6579,2.6584,2.6699,2.6757,2.6853,0,0,0,2.6098,2.6241,2.6131,2.6287,2.6168,2.6298,2.6221,2.6317,2.637,2.6308,2.6581,2.6585,2.6696,2.675,2.6846,2.6941,2.6983,0,0,2.6298,2.6267,2.6356,2.6259,2.6418,2.6284,2.6462,2.6479,2.6452,2.6543,2.655,2.6709,2.6756,2.6852,2.7208,2.7242,0,0,0,2.643,2.6495,2.653,2.6582,2.6598,2.6618,2.6604,2.661,2.6685,2.6506,2.6768,2.6795,2.685,2.6893,2.6922,2.6967,2.6607,2.6606,2.6606,2.6762,2.672,2.6864,2.6831,2.6883,2.6867,2.6905,2.691,2.6853,2.6915,2.6943,2.7164,2.7217,2.7238,2.7285,2.6988,2.6989,2.6989,2.699,2.7052,2.7136,2.7056,2.7167,2.7122,2.7215,2.7204,2.7161,2.724,2.714,2.7186,2.7081,2.7277,2.7316,2.6999,2.6997,2.6996,2.6995,2.6995,2.7265,2.7298,2.7303,2.7374,2.7433,2.7394,2.7474,2.743,2.7388,2.7434,2.7457,2.7455,2.7448,2.7448,2.7449,2.7449,2.745,2.7451,2.7451,2.7484,2.7485,2.7559,2.7588,2.7615,2.7646,2.7631,2.7656,2.7673,2.7635,2.7635,2.7571,2.7304,2.7238,2.7463,2.7461,2.7459,2.7458,2.7457,2.7794,2.7717,2.783,2.7858,2.7888,2.795,2.7892,2.7948,2.7963,2.8004,2.793,2.7739,2.7705,2.7681,2.7626,2.7939,2.7939,2.7939,2.7939,2.7974,2.7952,2.8058,2.8105,2.8146,2.8105,2.8234,2.8223,2.82,2.8207,2.8155,2.8078,2.8056,2.8034,2.8003,2.7951,2.8339,2.8339,2.834,2.8163,2.8142,2.8261,2.8237,2.8258,2.8276,2.8396,2.8453,2.8411,2.8355,2.8211,2.8194,2.8069,2.8031,2.7973,2.7926,2.783,0,0]},{"header":{"parameterUnit":"m.s-1","parameterCategory":1,"la1":30.2992,"la2":30.254,"lo1":-89.0895,"lo2":-89.0443,"dy":0.0025,"dx":0.0025,"nx":19,"ny":19,"refTime":"2026-03-22T09:00:00:Z","depth":0,"parameterNumber":3,"parameterNumberName":"V-component_of_WINDS"},"data":[0,0,0,5.2626,5.263,5.2809,5.281,5.3035,5.3037,0,0,0,0,0,0,0,0,0,0,0,5.2576,5.2578,5.2626,5.2631,5.2809,5.281,5.3035,5.3037,0,0,0,0,0,0,0,0,0,0,0,5.2575,5.2577,5.2579,5.2631,5.2809,5.281,5.3035,5.29,0,0,0,0,0,0,0,0,0,0,5.2726,5.2683,5.2577,5.2579,5.2632,5.2809,5.281,5.2893,5.2908,5.2954,0,5.3,0,5.3023,5.3053,5.3054,0,0,0,5.2627,5.2671,5.2717,5.258,5.2634,5.2809,5.2728,5.2901,5.2918,5.2974,5.3004,5.3012,5.3027,5.3054,5.3055,5.3343,5.3345,0,0,5.2617,5.2608,5.2706,5.2728,5.2706,5.2722,5.2733,5.2912,5.2941,5.3004,5.3017,5.303,5.3056,5.3057,5.3342,5.3344,0,0,0,5.2591,5.2602,5.2644,5.2719,5.2752,5.2727,5.274,5.2933,5.2948,5.302,5.3033,5.3057,5.306,5.334,5.3342,5.3409,0,0,0,5.2585,5.2586,5.2639,5.2636,5.2749,5.2846,5.2758,5.2936,5.2956,5.3032,5.3057,5.3062,5.3339,5.3341,5.3404,5.3441,0,0,0,5.2563,5.2584,5.2611,5.2635,5.2712,5.2843,5.2868,5.294,5.2965,5.3054,5.3063,5.3338,5.3341,5.3399,5.3433,5.3514,0,0,0,5.2536,5.2666,5.2612,5.2762,5.2711,5.2885,5.2867,5.2996,5.3081,5.3058,5.3339,5.3342,5.3398,5.3429,5.3509,5.3581,5.361,0,0,5.2694,5.2685,5.2773,5.2731,5.2913,5.2858,5.3048,5.3132,5.3146,5.3275,5.3283,5.3405,5.3433,5.3513,5.3778,5.3802,0,0,0,5.282,5.2884,5.2934,5.3017,5.3086,5.3148,5.3204,5.3235,5.3346,5.3213,5.3457,5.3474,5.3521,5.3555,5.3575,5.3616,5.3358,5.3358,5.3357,5.3031,5.3046,5.3193,5.3229,5.3308,5.3366,5.343,5.348,5.3469,5.3527,5.3565,5.3725,5.3765,5.378,5.3822,5.3604,5.3605,5.3605,5.3605,5.3264,5.3356,5.3341,5.3479,5.3492,5.3605,5.3664,5.3653,5.3758,5.3697,5.3739,5.3671,5.3805,5.3842,5.361,5.3609,5.3609,5.3608,5.3608,5.3403,5.3449,5.3487,5.3607,5.3697,5.3727,5.383,5.3837,5.3844,5.3886,5.3927,5.3925,5.3924,5.3905,5.3906,5.3906,5.3907,5.3907,5.3908,5.3531,5.3572,5.3661,5.3746,5.3799,5.387,5.3928,5.3979,5.4037,5.4033,5.4034,5.4016,5.3817,5.3766,5.3916,5.3915,5.3914,5.3913,5.3912,5.3761,5.3711,5.3847,5.3901,5.4001,5.4089,5.4097,5.4201,5.4243,5.4293,5.4267,5.4119,5.4107,5.4092,5.405,5.4265,5.4265,5.4265,5.4265,5.3878,5.3874,5.4015,5.41,5.4184,5.4206,5.4355,5.4401,5.4439,5.4465,5.4435,5.438,5.4364,5.4362,5.4341,5.4301,5.4575,5.4576,5.4576,5.4019,5.4024,5.4152,5.4193,5.4271,5.4337,5.4477,5.4572,5.4604,5.4589,5.4486,5.4473,5.4384,5.4355,5.4337,5.4303,5.4231,0,0]}]]